User: anonymous   Login
Location: *
(33.8649°S, 62.1526°E)
Time: 17:37:32
(UTC+00:00)
Language:

Cosmos 44 Rocket - Orbit

View from above orbital plane
View from above orbital plane
View from above satellite
View from above satellite

Ground track
Ground track

The orbit data is extracted from the following two-line orbital elements,

1 00877U 64053B   22266.82722147  .00000127  00000-0  50863-4 0  9997
2 00877  65.0779  67.9527 0049820  69.5907 291.0532 14.59579417 82377
Epoch (UTC): 23 September 2022 19:51:11
Eccentricity: 0.0049820
inclination: 65.0779°
perigee height: 659 km
apogee height: 730 km
right ascension of ascending node: 67.9527°
argument of perigee: 69.5907°
revolutions per day: 14.59579417
mean anomaly at epoch: 291.0532°
orbit number at epoch: 8237

The dashed part of the orbit path shows where the satellite is in the earth's shadow,  

DLR